Santuari del Far - Susqueda (La Selva)





Hora UTC 09:40
Temperatura 5.6 ºC
Humitat 94.0 %
Pressió 1001.3 hPa
Pluja 1.0 mm
Velocitat vent 3.2 km/h
Direcció vent N

Dades diàries 2022-12-10



Hora UTC (hivern +1h; estiu +2h)
Temperatura (ºC) Humitat (%) Pressió (hPa) Velocitat vent (km/h) Precipitació (mm)
Hora UTC Aire Humitat Pressió Vel. Dir. Vel. Max Dir. Intent. màx 5 min.
00:05 6.1 92.0 998.7 1.6 N 1.6 0.0
00:10 6.2 92.0 998.7 3.2 N 4.8 0.2
00:15 6.1 92.0 998.5 3.2 N 4.8 0.0
00:20 6.1 92.0 998.6 0.0 N 4.8 0.2
00:25 6.1 93.0 998.5 3.2 N 6.4 0.0
00:30 6.2 92.0 998.5 1.6 N 6.4 0.0
00:35 6.2 93.0 998.4 3.2 N 6.4 0.0
00:40 6.1 93.0 998.4 1.6 N 6.4 0.0
00:45 6.2 93.0 998.3 1.6 N 4.8 0.0
00:50 6.2 93.0 998.4 1.6 N 4.8 0.0
00:55 6.2 93.0 998.4 4.8 N 6.4 0.2
01:00 6.2 93.0 998.4 6.4 N 6.4 0.0
01:05 6.2 93.0 998.4 3.2 N 6.4 0.0
01:10 6.2 93.0 998.4 3.2 N 6.4 0.0
01:15 6.2 93.0 998.4 3.2 N 6.4 0.0
01:20 6.2 93.0 998.4 4.8 N 9.7 0.0
01:25 6.2 93.0 998.5 4.8 N 9.7 0.0
01:30 6.2 93.0 998.5 4.8 N 6.4 0.0
01:35 6.1 93.0 998.5 4.8 N 9.7 0.0
01:40 6.1 93.0 998.5 4.8 N 9.7 0.0
01:45 6.1 93.0 998.5 3.2 N 6.4 0.0
01:50 6.1 93.0 998.6 8.0 N 8.0 0.0
01:55 6.1 93.0 998.5 1.6 N 8.0 0.0
02:00 6.1 93.0 998.6 1.6 N 6.4 0.0
02:05 6.0 93.0 998.7 1.6 N 6.4 0.2
02:10 6.1 93.0 998.7 1.6 N 4.8 0.0
02:15 6.1 93.0 998.7 3.2 N 4.8 0.0
02:20 6.1 93.0 998.8 0.0 N 4.8 0.0
02:25 6.1 93.0 998.7 1.6 N 3.2 0.0
02:30 6.1 93.0 998.7 0.0 N 3.2 0.0
02:35 6.1 93.0 998.8 1.6 N 3.2 0.0
02:40 6.1 93.0 998.7 0.0 N 4.8 0.0
02:45 6.1 93.0 998.7 1.6 N 4.8 0.0
02:50 6.0 93.0 998.7 0.0 N 3.2 0.0
02:55 6.0 93.0 998.8 0.0 N 8.0 0.0
03:00 5.9 93.0 998.8 0.0 N 8.0 0.0
03:05 5.9 93.0 998.8 3.2 N 4.8 0.0
03:10 5.9 93.0 998.8 0.0 N 4.8 0.0
03:15 5.9 93.0 998.8 3.2 N 6.4 0.0
03:20 5.9 93.0 998.8 1.6 N 6.4 0.0
03:25 5.9 93.0 998.8 3.2 N 6.4 0.0
03:30 5.9 93.0 998.6 0.0 N 6.4 0.0
03:35 5.9 93.0 998.5 0.0 N 4.8 0.0
03:40 5.9 93.0 998.5 0.0 N 3.2 0.0
03:45 5.8 93.0 998.5 1.6 N 4.8 0.0
03:50 5.9 93.0 998.5 0.0 N 4.8 0.0
03:55 5.8 93.0 998.5 3.2 N 4.8 0.0
04:00 5.9 93.0 998.5 0.0 N 4.8 0.0
04:05 5.9 93.0 998.6 0.0 N 3.2 0.0
04:10 5.9 93.0 998.6 3.2 N 4.8 0.0
04:15 5.9 94.0 998.6 1.6 N 4.8 0.0
04:20 5.9 94.0 998.5 1.6 N 4.8 0.0
04:25 5.9 94.0 998.5 1.6 N 4.8 0.0
04:30 6.1 94.0 998.5 1.6 N 4.8 0.0
04:35 6.1 94.0 998.5 0.0 N 4.8 0.0
04:40 6.1 93.0 998.6 0.0 N 1.6 0.0
04:45 6.1 93.0 998.5 3.2 N 4.8 0.0
04:50 6.1 93.0 998.3 4.8 N 6.4 0.0
04:55 6.1 93.0 998.3 4.8 N 6.4 0.0
05:00 6.1 93.0 998.3 4.8 N 8.0 0.0
05:05 6.1 93.0 998.3 6.4 N 8.0 0.0
05:10 6.0 93.0 998.5 4.8 N 8.0 0.0
05:15 6.0 93.0 998.6 6.4 N 8.0 0.0
05:20 5.9 93.0 998.5 6.4 N 8.0 0.0
05:25 5.9 93.0 998.5 9.7 N 9.7 0.0
05:30 5.9 93.0 998.4 4.8 N 9.7 0.0
05:35 5.9 93.0 998.5 6.4 N 9.7 0.0
05:40 5.8 93.0 998.7 3.2 N 8.0 0.0
05:45 5.8 93.0 998.7 6.4 N 8.0 0.0
05:50 5.8 93.0 998.8 6.4 N 8.0 0.0
05:55 5.8 93.0 998.8 4.8 N 8.0 0.0
06:00 5.8 93.0 999.0 6.4 N 11.3 0.0
06:05 5.8 93.0 999.0 3.2 N 11.3 0.0
06:10 5.8 93.0 999.2 4.8 N 8.0 0.0
06:15 5.8 93.0 999.1 3.2 N 8.0 0.0
06:20 5.8 93.0 999.2 3.2 N 8.0 0.0
06:25 5.8 93.0 999.3 3.2 N 6.4 0.0
06:30 5.7 93.0 999.2 1.6 N 6.4 0.0
06:35 5.7 93.0 999.3 1.6 N 6.4 0.2
06:40 5.7 93.0 999.4 3.2 N 6.4 0.0
06:45 5.7 94.0 999.5 1.6 N 8.0 0.0
06:50 5.7 94.0 999.6 1.6 N 6.4 0.0
06:55 5.7 94.0 999.7 3.2 N 4.8 0.0
07:00 5.7 94.0 999.7 3.2 N 6.4 0.0
07:05 5.7 94.0 999.7 1.6 N 8.0 0.0
07:10 5.7 94.0 999.6 3.2 N 8.0 0.0
07:15 5.7 94.0 999.5 3.2 N 6.4 0.0
07:20 5.7 94.0 999.7 1.6 N 6.4 0.0
07:25 5.6 94.0 999.6 3.2 N 4.8 0.0
07:30 5.6 94.0 999.8 1.6 N 11.3 0.0
07:35 5.6 94.0 999.9 3.2 N 11.3 0.0
07:40 5.7 94.0 999.8 3.2 N 8.0 0.0
07:45 5.7 94.0 999.7 6.4 N 9.7 0.0
07:50 5.7 94.0 999.9 3.2 N 12.9 0.0
07:55 5.7 94.0 1000.1 4.8 N 12.9 0.0
08:00 5.7 94.0 999.9 1.6 N 11.3 0.0
08:05 5.7 94.0 1000.0 1.6 N 11.3 0.0
08:10 5.7 94.0 1000.0 3.2 N 4.8 0.0
08:15 5.8 94.0 1000.3 3.2 N 8.0 0.0
08:20 5.8 94.0 1000.1 1.6 N 8.0 0.0
08:25 5.8 94.0 1000.2 1.6 N 4.8 0.0
08:30 5.8 94.0 1000.4 3.2 N 8.0 0.0
08:35 5.8 94.0 1000.7 3.2 N 8.0 0.0
08:40 5.8 94.0 1000.8 1.6 N 9.7 0.0
08:45 5.8 94.0 1000.8 1.6 N 9.7 0.0
08:50 5.8 94.0 1001.0 0.0 N 6.4 0.0
08:55 5.8 94.0 1000.9 1.6 N 4.8 0.0
09:00 5.7 94.0 1000.8 3.2 N 4.8 0.0
09:05 5.8 94.0 1000.9 4.8 N 9.7 0.0
09:10 5.7 94.0 1000.9 3.2 N 9.7 0.0
09:10 5.7 94.0 1001.1 4.8 N 6.4 0.0
09:15 5.7 94.0 1001.0 3.2 N 8.0 0.0
09:20 5.7 94.0 1001.2 1.6 N 8.0 0.0
09:25 5.7 94.0 1001.3 4.8 N 6.4 0.0
09:30 5.7 94.0 1001.3 3.2 N 6.4 0.0
09:35 5.7 94.0 1001.3 1.6 N 8.0 0.0
09:40 5.6 94.0 1001.3 3.2 N 8.0 0.0
Màxima 6.2 94.0 1001.3 9.7 N 12.9 0.2
Mínima 5.6 92.0 998.3
Total 1.0